Weather History for Telluride, CO

Change the Weather History Date:

Monday, June 24, 2013

  Actual Average Record
Temperature  
Mean Temperature 61 °F -  
Max Temperature 69 °F 70 °F 82 °F (2012)
Min Temperature 53 °F 44 °F 42 °F (2004)
Degree Days  
Heating Degree Days 4    
Growing Degree Days 11 (Base 50)    
Moisture  
Dew Point 12 °F    
Average Humidity 15    
Maximum Humidity 21    
Minimum Humidity 8    
Precipitation  
Precipitation 0.00 in - - ()
Sea Level Pressure  
Sea Level Pressure 30.20 in    
Wind  
Wind Speed 7 mph (SSE)    
Max Wind Speed 23 mph    
Max Gust Speed 37 mph    
Visibility 10 miles    
Events      
Averages and records for this station are not official NWS values.
T = Trace of Precipitation, MM = Missing Value Source: NWS Daily Summary

Daily Weather History Graph

Daily Weather History Graph

Search for Another Location

Airport:

Trip Planner

Search our weather history database for the weather conditions in past years. The results will help you decide how hot, cold, wet, or windy it might be!

Date:

Astronomy

Jun. 24, 2013 Rise Set
Actual Time 5:50 AM MDT 8:37 PM MDT
Civil Twilight 5:18 AM MDT 9:09 PM MDT
Nautical Twilight 4:39 AM MDT 9:48 PM MDT
Astronomical Twilight 3:54 AM MDT 10:33 PM MDT
Moon 9:45 PM MDT (6/24) 7:19 AM MDT (6/24)
Length of Visible Light 15h 50m
Length of Day
14h 47m
Full, 97% of the Moon is Illuminated
Jun 24
Full
Jun 29
Last Quarter
Jul 8
New
Jul 15
First Quarter
Jul 22
Full

Hourly Weather History & Observations

Time (MDT) Temp. Dew Point Humidity Pressure Visibility Wind Dir Wind Speed Gust Speed Precip Events Conditions
12:15 AM 53.6 °F 14.0 °F 21% 30.18 in 10.0 mi SE 3.5 mph - N/A   Clear
12:35 AM 55.4 °F 12.2 °F 18% 30.18 in 10.0 mi Calm Calm - N/A   Clear
12:55 AM 53.6 °F 12.2 °F 19% 30.18 in 10.0 mi ESE 6.9 mph - N/A   Clear
1:15 AM 53.6 °F 14.0 °F 21% 30.18 in 10.0 mi East 3.5 mph - N/A   Clear
1:35 AM 53.6 °F 14.0 °F 21% 30.18 in 10.0 mi East 4.6 mph - N/A   Clear
1:55 AM 53.6 °F 14.0 °F 21% 30.18 in 10.0 mi Calm Calm - N/A   Clear
2:15 AM 53.6 °F 14.0 °F 21% 30.18 in 10.0 mi ESE 4.6 mph - N/A   Clear
2:35 AM 53.6 °F 14.0 °F 21% 30.18 in 10.0 mi ESE 5.8 mph - N/A   Clear
2:55 AM 53.6 °F 14.0 °F 21% 30.18 in 10.0 mi SE 3.5 mph - N/A   Clear
3:15 AM 53.6 °F 14.0 °F 21% 30.19 in 10.0 mi Calm Calm - N/A   Clear
3:35 AM 53.6 °F 12.2 °F 19% 30.19 in 10.0 mi Calm Calm - N/A   Clear
3:55 AM 53.6 °F 12.2 °F 19% 30.18 in 10.0 mi Calm Calm - N/A   Clear
4:15 AM 53.6 °F 14.0 °F 21% 30.18 in 10.0 mi ESE 6.9 mph - N/A   Clear
4:35 AM 55.4 °F 10.4 °F 17% 30.18 in 10.0 mi ESE 6.9 mph - N/A   Clear
4:55 AM 55.4 °F 10.4 °F 17% 30.18 in 10.0 mi SE 9.2 mph - N/A   Clear
5:15 AM 57.2 °F 10.4 °F 16% 30.19 in 10.0 mi East 6.9 mph - N/A   Clear
5:35 AM 57.2 °F 10.4 °F 16% 30.19 in 10.0 mi ESE 9.2 mph - N/A   Clear
5:55 AM 57.2 °F 10.4 °F 16% 30.20 in 10.0 mi ESE 6.9 mph 18.4 mph N/A   Clear
6:15 AM 57.2 °F 12.2 °F 17% 30.20 in 10.0 mi ESE 11.5 mph - N/A   Clear
6:35 AM 55.4 °F 12.2 °F 18% 30.21 in 10.0 mi SE 9.2 mph - N/A   Clear
6:55 AM 55.4 °F 12.2 °F 18% 30.21 in 10.0 mi SE 9.2 mph - N/A   Clear
7:15 AM 55.4 °F 14.0 °F 20% 30.21 in 10.0 mi SE 9.2 mph - N/A   Clear
7:35 AM 55.4 °F 14.0 °F 20% 30.21 in 10.0 mi SE 10.4 mph - N/A   Clear
7:55 AM 57.2 °F 14.0 °F 18% 30.22 in 10.0 mi SE 9.2 mph 16.1 mph N/A   Clear
8:15 AM 57.2 °F 14.0 °F 18% 30.23 in 10.0 mi SE 3.5 mph - N/A   Clear
8:35 AM 59.0 °F 14.0 °F 17% 30.22 in 10.0 mi SE 9.2 mph - N/A   Clear
8:55 AM 60.8 °F 14.0 °F 16% 30.22 in 10.0 mi South 4.6 mph - N/A   Clear
9:15 AM 60.8 °F 14.0 °F 16% 30.22 in 10.0 mi SSE 5.8 mph - N/A   Clear
9:35 AM 60.8 °F 14.0 °F 16% 30.23 in 10.0 mi SSW 10.4 mph 28.8 mph N/A   Clear
9:55 AM 62.6 °F 14.0 °F 15% 30.22 in 10.0 mi South 12.7 mph 19.6 mph N/A   Clear
10:15 AM 62.6 °F 17.6 °F 18% 30.22 in 10.0 mi South 8.1 mph 23.0 mph N/A   Scattered Clouds
10:35 AM 62.6 °F 14.0 °F 15% 30.22 in 10.0 mi SE 11.5 mph 26.5 mph N/A   Scattered Clouds
10:55 AM 64.4 °F 12.2 °F 13% 30.22 in 10.0 mi SSE 16.1 mph 21.9 mph N/A   Clear
11:15 AM 64.4 °F 10.4 °F 12% 30.23 in 10.0 mi SSE 15.0 mph 27.6 mph N/A   Clear
11:35 AM 62.6 °F 8.6 °F 12% 30.22 in 10.0 mi South 17.3 mph 26.5 mph N/A   Clear
11:55 AM 62.6 °F 5.0 °F 10% 30.21 in 10.0 mi South 10.4 mph 35.7 mph N/A   Clear
12:15 PM 64.4 °F 8.6 °F 11% 30.20 in 10.0 mi South 23.0 mph 34.5 mph N/A   Clear
12:35 PM 66.2 °F 6.8 °F 10% 30.20 in 10.0 mi South 19.6 mph 36.8 mph N/A   Clear
12:55 PM 64.4 °F 8.6 °F 11% 30.20 in 10.0 mi South 20.7 mph 33.4 mph N/A   Scattered Clouds
1:15 PM 68.0 °F 10.4 °F 11% 30.20 in 10.0 mi SE 11.5 mph 34.5 mph N/A   Scattered Clouds
1:35 PM 68.0 °F 10.4 °F 11% 30.18 in 10.0 mi South 20.7 mph 28.8 mph N/A   Scattered Clouds
1:55 PM 68.0 °F 5.0 °F 8% 30.19 in 10.0 mi South 17.3 mph 28.8 mph N/A   Scattered Clouds
2:15 PM 69.8 °F 6.8 °F 9% 30.19 in 7.0 mi South 16.1 mph 34.5 mph N/A   Scattered Clouds
2:35 PM 68.0 °F 8.6 °F 10% 30.18 in 10.0 mi South 20.7 mph 35.7 mph N/A   Scattered Clouds
2:55 PM 69.8 °F 8.6 °F 9% 30.19 in 10.0 mi SSE 9.2 mph 25.3 mph N/A   Mostly Cloudy
3:15 PM 69.8 °F 10.4 °F 10% 30.19 in 10.0 mi SE 13.8 mph 27.6 mph N/A   Scattered Clouds
3:35 PM 68.0 °F 10.4 °F 11% 30.19 in 10.0 mi SSW 18.4 mph 33.4 mph N/A   Clear
3:55 PM 68.0 °F 10.4 °F 11% 30.20 in 10.0 mi SSE 9.2 mph 25.3 mph N/A   Clear
4:15 PM 68.0 °F 10.4 °F 11% 30.20 in 10.0 mi South 15.0 mph 20.7 mph N/A   Clear
4:35 PM 68.0 °F 10.4 °F 11% 30.19 in 10.0 mi SE 19.6 mph 28.8 mph N/A   Clear
4:55 PM 68.0 °F 10.4 °F 11% 30.19 in 10.0 mi SSE 11.5 mph 33.4 mph N/A   Clear
5:15 PM 68.0 °F 12.2 °F 12% 30.19 in 10.0 mi South 16.1 mph 25.3 mph N/A   Clear
5:35 PM 66.2 °F 12.2 °F 12% 30.19 in 10.0 mi SE 15.0 mph 21.9 mph N/A   Clear
5:55 PM 66.2 °F 10.4 °F 11% 30.19 in 10.0 mi SSE 13.8 mph 35.7 mph N/A   Clear
6:15 PM 64.4 °F 12.2 °F 13% 30.19 in 10.0 mi South 9.2 mph 28.8 mph N/A   Scattered Clouds
6:35 PM 64.4 °F 14.0 °F 14% 30.20 in 10.0 mi SSE 8.1 mph 23.0 mph N/A   Scattered Clouds
6:55 PM 64.4 °F 14.0 °F 14% 30.20 in 10.0 mi SSW 11.5 mph 26.5 mph N/A   Mostly Cloudy
7:15 PM 64.4 °F 14.0 °F 14% 30.19 in 10.0 mi South 12.7 mph 25.3 mph N/A   Mostly Cloudy
7:35 PM 64.4 °F 14.0 °F 14% 30.20 in 10.0 mi South 5.8 mph 21.9 mph N/A   Mostly Cloudy
7:55 PM 64.4 °F 14.0 °F 14% 30.20 in 10.0 mi SW 6.9 mph - N/A   Scattered Clouds
8:15 PM 64.4 °F 15.8 °F 15% 30.20 in 10.0 mi Calm Calm - N/A   Clear
8:35 PM 64.4 °F 15.8 °F 15% 30.21 in 10.0 mi SSW 6.9 mph 21.9 mph N/A   Clear
8:55 PM 64.4 °F 15.8 °F 15% 30.21 in 10.0 mi South 6.9 mph 17.3 mph N/A   Clear
9:15 PM 62.6 °F 14.0 °F 15% 30.21 in 10.0 mi Calm Calm - N/A   Clear
9:35 PM 62.6 °F 14.0 °F 15% 30.22 in 10.0 mi Calm Calm - N/A   Clear
9:55 PM 62.6 °F 14.0 °F 15% 30.24 in 10.0 mi SW 13.8 mph 24.2 mph N/A   Mostly Cloudy
10:15 PM 62.6 °F 15.8 °F 16% 30.25 in 10.0 mi SW 11.5 mph 16.1 mph N/A   Overcast
10:35 PM 62.6 °F 15.8 °F 16% 30.25 in 10.0 mi WSW 6.9 mph - N/A   Overcast
10:55 PM 62.6 °F 14.0 °F 15% 30.25 in 10.0 mi WSW 9.2 mph - N/A   Overcast
11:15 PM 60.8 °F 14.0 °F 16% 30.24 in 10.0 mi Calm Calm - N/A   Scattered Clouds
11:35 PM 60.8 °F 14.0 °F 16% 30.24 in 10.0 mi WSW 4.6 mph - N/A   Scattered Clouds
11:55 PM 60.8 °F 14.0 °F 16% 30.24 in 10.0 mi Calm Calm - N/A   Mostly Cloudy